Home   Weather   Fairfield   Past weeks
Flag for USA

Past Weather in Fairfield, North Carolina, USA — Yesterday and Last 2 Weeks

Now
46 °F

Overcast.


Feels Like: 46 °F
Forecast: 55 / 41 °F
Wind: No wind

Location: Charlotte / Douglas International Airport

Current Time: Dec 9, 2019 at 2:22:15 pm

Latest Report: Dec 9, 2019 at 12:52 pm


Visibility: 8 mi

Pressure: 30.03 "Hg

Humidity: 79%

Dew Point: 40 °F

Location of FairfieldLocation

Past Weather in Fairfield — Graph

°F

Fairfield Temperature Yesterday

Maximum temperature yesterday: 52 °F (at 3:52 pm)
Minimum temperature yesterday: 33 °F (at 5:52 am)
Average temperature yesterday: 43 °F

High & Low Weather Summary for the Past Weeks

 TemperatureHumidityPressure
High68 °F (Dec 1, 1:52 pm)96% (Nov 26, 4:16 am)30.47 "Hg (Nov 26, 4:16 am)
Low32 °F (Nov 25, 5:52 am)17% (Dec 5, 2:52 pm)29.46 "Hg (Dec 1, 2:52 pm)
Average49 °F60%30.00 "Hg
* Reported Nov 24 11:52 am — Dec 9 11:52 am, Fairfield. Weather by CustomWeather, © 2019

Note: Actual official high and low records may vary slightly from our data, if they occured in-between our weather recording intervals... More about our weather records

Fairfield Weather History for the Previous 24 Hours

Scroll right to see more
 ConditionsComfort  
Time TempWeatherWind HumidityBarometerVisibility
11:52 am
Mon, Dec 9
45 °FMostly cloudy.3 mph82%30.08 "Hg8 mi
11:06 am45 °FMostly cloudy.No wind80%30.10 "Hg8 mi
10:52 am45 °FMore clouds than sun.3 mph76%30.11 "Hg9 mi
10:40 am45 °FMostly cloudy.5 mph76%30.11 "Hg10 mi
9:52 am43 °FLow clouds.5 mph79%30.13 "Hg10 mi
8:52 am42 °FLow clouds.5 mph82%30.14 "Hg10 mi
7:52 am41 °FLight rain. Mostly cloudy.5 mph80%30.14 "Hg5 mi
7:38 am42 °FLight rain. Mostly cloudy.6 mph73%30.15 "Hg9 mi
7:03 am43 °FLight rain. Low clouds.6 mph65%30.14 "Hg8 mi
5:52 am44 °FOvercast.No wind55%30.14 "Hg10 mi
4:52 am44 °FOvercast.3 mph53%30.16 "Hg10 mi
3:52 am44 °FOvercast.5 mph53%30.19 "Hg10 mi
2:52 am44 °FMostly cloudy.3 mph51%30.22 "Hg10 mi
1:52 am42 °FMostly cloudy.7 mph60%30.23 "Hg10 mi
12:52 am43 °FMostly cloudy.3 mph47%30.24 "Hg10 mi
11:52 pm
Sun, Dec 8
42 °FMostly cloudy.6 mph49%30.27 "Hg10 mi
10:52 pm41 °FMostly cloudy.6 mph51%30.27 "Hg10 mi
9:52 pm40 °FOvercast.6 mph53%30.29 "Hg10 mi
8:52 pm41 °FPassing clouds.6 mph49%30.31 "Hg10 mi
7:52 pm40 °FPassing clouds.5 mph51%30.31 "Hg10 mi
6:52 pm46 °FPassing clouds.5 mph38%30.31 "Hg10 mi
5:52 pm47 °FPassing clouds.7 mph36%30.30 "Hg10 mi
4:52 pm50 °FPartly sunny.7 mph29%30.31 "Hg10 mi
3:52 pm52 °FPartly sunny.7 mph26%30.31 "Hg10 mi
2:52 pm51 °FPartly sunny.3 mph27%30.32 "Hg10 mi
Weather by CustomWeather, © 2019

See weather overview

Advertising